ロニオス彗星

C/2006 S3 ( LONEOS )

English version
Home page
Updated on December 15, 2011

---------------------------------------------------------------------

・ プロフィール

発見日 2006年9月19日
発見光度 19.0等
発見者 Lowell Observatory Near-Earth Object Search

・ 写真集

・ 軌道要素

Epoch 2012 Apr. 23.0 TT = JDT 2456040.5
T 2012 Apr. 16.34657 TT                                 MPC
q   5.1310408            (2000.0)            P               Q
z  -0.0006731      Peri.  140.13101     -0.21560231     -0.96491872
 +/-0.0000003      Node    38.36955     -0.94613204     +0.24438335
e   1.0034535      Incl.  166.03268     -0.24155705     -0.09596166
From 2719 observations 2006 Aug. 29-2011 Oct. 26, mean residual 0".5.

・ 星図

・ 光度変化

        m1 = 5.0 + 5 logΔ + 7.5 log r

---------------------------------------------------------------------

軌道要素はM.P.E.C. 2011-V31に掲載されたものです。
星図は StellaNavigator Ver.2.0 for Windows (アストロアーツ編著 / アスキー出版局刊) で作成したものです。
光度グラフはComet for Windowsで作成したものです。

---------------------------------------------------------------------

Copyright(C) Seiichi Yoshida (comet@aerith.net). All rights reserved.